Regional Weather Roundup
Issued by NWS

Home | Current Version | Previous Version | Graphics & Text | Print | Product List | Glossary On
Versions: 1 2 3 4 5 6 7 8 9 10 11 12 13 14 15 16 17 18 19 20 21 22 23 24 25 26 27
000
ASUS45 KBOU 030107
RWRCO

WEATHER ROUNDUP FOR COLORADO
NATIONAL WEATHER SERVICE DENVER/BOULDER CO
700 PM MDT MON MAY 02 2016

NOTE: "FAIR" INDICATES FEW OR NO CLOUDS BELOW 12000 FEET WITH NO
SIGNIFICANT WEATHER AND/OR OBSTRUCTIONS TO VISIBILITY.

COZ001>005-013-030-031-030200-
...NORTHWEST COLORADO...

CITY           SKY/WX    TMP DP  RH WIND       PRES   REMARKS
CRAIG          FAIR      58  25  28 W6        30.17F
HAYDEN         FAIR      55  21  26 W12       30.17S
MEEKER         PTSUNNY   59  23  25 SW10      30.17S
MOUNT WERNER   NOT AVBL
STEAMBOAT SPGS FAIR      55  25  31 W14       30.17S
WALDEN         FAIR      48  19  32 NW18      30.22R
$$

COZ006>008-011-030200-
...WEST CENTRAL VALLEYS...

CITY           SKY/WX    TMP DP  RH WIND       PRES   REMARKS
GRAND JUNCTION FAIR      62  34  35 NW12      30.11F
MONTROSE       FAIR      61  26  26 NW7       30.15S
EAGLE          CLOUDY    57  27  30 SW7       30.16R
RIFLE          FAIR      61  28  28 W7        30.11S
DELTA          NOT AVBL
NUCLA          NOT AVBL
$$

COZ017>023-064>068-030200-
...SOUTHWEST COLORADO...

CITY           SKY/WX    TMP DP  RH WIND       PRES   REMARKS
DURANGO        FAIR      50  37  61 NW15      30.18S
CORTEZ         PTSUNNY   57  33  40 SW7       30.17S
PAGOSA SPRINGS NOT AVBL
TELLURIDE      NOT AVBL
WOLF CREEK PAS CLOUDY    28  28 100 SW12      30.35R WCI  18
$$

COZ009-010-012-014-032>034-037-058>063-030200-
...CENTRAL COLORADO...

CITY           SKY/WX    TMP DP  RH WIND       PRES   REMARKS
ASPEN          FAIR      49  25  39 NW12      30.19R
BUENA VISTA    NOT AVBL
COPPER MTN     NOT AVBL
BERTHOUD PASS  FAIR      21  12  68 NW23G35   30.30S WCI   5
COTTONWOOD PAS FAIR      46  23  39 CALM      30.24R
GUNNISON       PTSUNNY   54  23  30 SW10      30.19S
KREMMLING      FAIR      54  18  24 NW9       30.19S
LEADVILLE      PTSUNNY   44  17  33 NW10      30.22S
MONARCH PASS   FAIR      28  27  93 MISG      30.42F
SALIDA         MOCLDY    55  29  37 NE14G22   30.23R
SUNLIGHT       FAIR      36  27  69 W6        30.34F
WILKERSON PASS MOCLDY    34  25  69 NE5       30.31S WCI  30
$$

COZ069>075-030200-
...SAN LUIS VALLEY/SANGRE DE CRISTO MOUNTAINS...

CITY           SKY/WX    TMP DP  RH WIND       PRES   REMARKS
ALAMOSA        CLOUDY    53  32  44 SW15      30.17R
LA VETA PASS   FAIR      36  27  69 CALM      30.27S
SAGUACHE       CLOUDY    50  32  50 S10       30.16S
$$

COZ035-036-038>040-030200-
...NORTHERN COLORADO FRONT RANGE...

CITY           SKY/WX    TMP DP  RH WIND       PRES   REMARKS
DENVER INTL AP FAIR      57  24  28 NE8       30.11S
DMNS CITY PARK   N/A     57  23  27 N10       30.11S
AURORA         NOT AVBL
FRONT RANGE AP PTCLDY    54  23  30 N6        30.12S
ERIE MUNI ARPT FAIR      59  26  28 CALM      30.10S
BOULDER MUN AP FAIR      55  28  35 E3        30.10S
CENTENNIAL     FAIR      55  24  30 NE5       30.12S
BROOMFIELD     PTCLDY    57  28  33 E6        30.12S
FORT COLLINS   FAIR      63  30  29 SE7       30.09S
LONGMONT       FAIR      61  30  30 SW3       30.11S
$$

COZ041-046-047-076>085-087-088-030200-
...PIKES PEAK/PALMER DIVIDE AND SOUTHERN FOOTHILLS...

CITY           SKY/WX    TMP DP  RH WIND       PRES   REMARKS
COLO. SPRINGS  FAIR      56   5  13 SE9       30.13S
A. F. ACADEMY  NOT AVBL
SCHRIEVER AFB  NOT AVBL
ELLICOTT       FAIR     N/A N/A N/A E7        30.12S
FALCON         FAIR      52  11  19 CALM      30.15F
FORT CARSON    FAIR      57  31  36 S3        30.10F
LIMON          FAIR      52  25  35 CALM      30.12F
MONUMENT HILL  FAIR      45  25  45 NE5       30.17S
TRINIDAD       FAIR      55  33  43 E9        30.13S
$$

COZ042>045-048>051-090-091-030200-
...NORTHEAST COLORADO...

CITY           SKY/WX    TMP DP  RH WIND       PRES   REMARKS
GREELEY ARPT   FAIR      61  27  27 N8        30.09S
AKRON          FAIR      54  32  43 SW9       30.07S
BURLINGTON     FAIR      57  18  21 NW7       30.09S
WRAY           NOT AVBL
STERLING       FAIR      59  32  36 NW8       30.04S
HOLYOKE        NOT AVBL
FORT MORGAN    NOT AVBL
$$

COZ086-089-092>099-030200-
...SOUTHEAST COLORADO...

CITY           SKY/WX    TMP DP  RH WIND       PRES   REMARKS
PUEBLO         FAIR      61  27  27 S8        30.08F
LA JUNTA       FAIR      60  26  27 S6        30.09F
LAMAR          FAIR      61  27  27 W6        30.06F
SPRINGFIELD      N/A     55  32  41 N6        30.11S
$$




USA.gov is the U.S. government's official web portal to all federal, state and local government web resources and services.